Metcalfe, MS

7:30 AM CDT on August 26, 2016 (GMT -0500)
Mid Delta Regional

Weather History for KGLH - May, 2012

Change the Weather History Date:

Sunday, May 20, 2012

  Actual Average Record
Temperature  
Mean Temperature 77 °F 73 °F  
Max Temperature 90 °F 83 °F 95 °F (1998)
Min Temperature 63 °F 63 °F 48 °F (2002)
Degree Days  
Heating Degree Days 0 0  
Month to date heating degree days 0 10  
Since 1 July heating degree days 2118 2771  
Cooling Degree Days 12 8  
Month to date cooling degree days 189 129  
Year to date cooling degree days 377 215  
Growing Degree Days 26 (Base 50)    
Moisture  
Dew Point 61 °F    
Average Humidity 64    
Maximum Humidity 93    
Minimum Humidity 34    
Precipitation  
Precipitation 0.00 in 0.15 in 2.23 in (1958)
Month to date precipitation 2.46 3.47  
Year to date precipitation 15.21 22.82  
Sea Level Pressure  
Sea Level Pressure 30.08 in    
Wind  
Wind Speed 3 mph (South)    
Max Wind Speed 10 mph    
Max Gust Speed 13 mph    
Visibility 10 miles    
Events      
T = Trace of Precipitation, MM = Missing Value Source: NWS Daily Summary

Daily Weather History Graph

Daily Weather History Graph

Search for Another Location

Airport or City:

Trip Planner

Search our weather history database for the weather conditions in past years. The results will help you decide how hot, cold, wet, or windy it might be!

Date:

Astronomy

May. 20, 2012 Rise Set
Actual Time 6:00 AM CDT 8:01 PM CDT
Civil Twilight 5:32 AM CDT 8:29 PM CDT
Nautical Twilight 4:58 AM CDT 9:03 PM CDT
Astronomical Twilight 4:22 AM CDT 9:39 PM CDT
Moon 5:40 AM CDT (5/20) 7:59 PM CDT (5/20)
Length of Visible Light 14h 56m
Length of Day
14h 01m
Waning Crescent, 0% of the Moon is Illuminated
May 20
Waning Crescent
May 20
New
May 28
First Quarter
Jun 4
Full
Jun 11
Last Quarter

Hourly Weather History & Observations

Time (CDT) Temp. Heat Index Dew Point Humidity Pressure Visibility Wind Dir Wind Speed Gust Speed Precip Events Conditions
12:53 AM 70.0 °F - 63.0 °F 78% 30.05 in 10.0 mi Calm Calm - N/A   Clear
1:53 AM 66.9 °F - 63.0 °F 87% 30.05 in 10.0 mi SE 3.5 mph - N/A   Clear
2:53 AM 66.9 °F - 63.0 °F 87% 30.05 in 10.0 mi Calm Calm - N/A   Clear
3:53 AM 66.0 °F - 62.1 °F 87% 30.06 in 10.0 mi Calm Calm - N/A   Clear
4:53 AM 66.0 °F - 61.0 °F 84% 30.08 in 10.0 mi Calm Calm - N/A   Clear
5:53 AM 64.9 °F - 62.1 °F 90% 30.09 in 10.0 mi Calm Calm - N/A   Clear
6:53 AM 68.0 °F - 62.1 °F 81% 30.12 in 10.0 mi Calm Calm - N/A   Clear
7:53 AM 73.0 °F - 63.0 °F 71% 30.13 in 10.0 mi SE 5.8 mph - N/A   Clear
8:53 AM 77.0 °F - 64.9 °F 66% 30.14 in 10.0 mi SSE 5.8 mph - N/A   Clear
9:53 AM 82.0 °F 83.4 °F 64.0 °F 54% 30.15 in 10.0 mi SSE 5.8 mph - N/A   Clear
10:53 AM 86.0 °F 85.7 °F 60.1 °F 41% 30.15 in 10.0 mi South 4.6 mph - N/A   Clear
11:53 AM 86.0 °F 86.3 °F 62.1 °F 44% 30.13 in 10.0 mi SW 5.8 mph - N/A   Scattered Clouds
12:53 PM 86.0 °F 85.4 °F 59.0 °F 40% 30.13 in 10.0 mi Calm Calm - N/A   Scattered Clouds
1:53 PM 88.0 °F 86.9 °F 57.9 °F 36% 30.10 in 10.0 mi Variable 3.5 mph - N/A   Clear
2:53 PM 89.1 °F 87.7 °F 57.0 °F 34% 30.08 in 10.0 mi Variable 3.5 mph - N/A   Clear
3:53 PM 88.0 °F 87.1 °F 59.0 °F 37% 30.05 in 10.0 mi South 6.9 mph - N/A   Clear
4:53 PM 88.0 °F 86.7 °F 57.0 °F 35% 30.04 in 10.0 mi SW 3.5 mph - N/A   Clear
5:53 PM 88.0 °F 87.6 °F 60.1 °F 39% 30.04 in 10.0 mi WSW 6.9 mph - N/A   Clear
6:53 PM 84.9 °F 84.8 °F 60.1 °F 43% 30.03 in 10.0 mi West 6.9 mph - N/A   Clear
7:53 PM 82.9 °F 83.2 °F 60.1 °F 46% 30.04 in 10.0 mi Calm Calm - N/A   Clear
8:53 PM 79.0 °F - 62.1 °F 56% 30.06 in 10.0 mi Calm Calm - N/A   Clear
9:53 PM 72.0 °F - 64.0 °F 76% 30.06 in 10.0 mi South 3.5 mph - N/A   Clear
10:53 PM 73.0 °F - 64.0 °F 73% 30.08 in 10.0 mi Calm Calm - N/A   Clear
11:53 PM 75.0 °F - 62.1 °F 64% 30.08 in 10.0 mi Calm Calm - N/A   Scattered Clouds